Regional Weather Roundup
Issued by NWS Kansas City/Pleasant Hill, MO

Home | Current Version | Previous Version | Text Only | Print | Product List | Glossary On
Versions: 1 2 3 4 5 6 7 8 9 10 11 12 13 14 15 16 17 18 19 20 21 22 23 24 25 26 27 28 29 30 31 32 33 34 35 36 37 38 39 40 41 42 43 44 45 46 47 48 49 50
000
ASUS43 KEAX 032110
RWREAX

WEATHER ROUNDUP FOR EASTERN KANSAS AND NORTHWEST MISSOURI
NATIONAL WEATHER SERVICE KANSAS CITY/PLEASANT HILL MO
400 PM CDT SUN MAY 03 2015

KSZ040-057-103>105-MOZ028-029-037-043-032200-
...KANSAS CITY METROPOLITAN AREA...

CITY           SKY/WX    TMP DP  RH WIND       PRES   REMARKS
K.C. INTL      PTSUNNY   79  58  48 S25G32    29.81F
K.C. DOWNTOWN  PTSUNNY   83  58  42 S22G28    29.83R
LEES SUMMIT    PTSUNNY   80  58  46 S21G32    29.86R
OLATHE - IXD   PTSUNNY   81  57  43 S17G31    29.85F
OLATHE - OJC   PTSUNNY   80  58  46 S16G35    29.84F
LAWRENCE       PTSUNNY   82  57  42 S13       29.82S

$$

MOZ001>008-011>017-020>025-030>033-038>040-044>046-053-054-032200-
...NORTHERN AND CENTRAL MISSOURI...

CITY           SKY/WX    TMP DP  RH WIND       PRES   REMARKS
ST. JOSEPH     MOSUNNY   82  57  42 S22G29    29.79F
MOSBY          PTCLDY    82  54  36 S15G28    29.82F
WARRENSBURG    PTSUNNY   81  55  41 S20G29    29.85S
WHITEMAN AFB   NOT AVBL
CLINTON        PTSUNNY   81  59  47 S12G18    29.91S
SEDALIA        PTSUNNY   79  56  45 S21G26    29.89F
WARSAW         NOT AVBL
MARSHALL       PTSUNNY   84  57  39 S15G25    29.88S
CHILLICOTHE      N/A     83  58  42 S16G28    29.83S
MOBERLY        PTSUNNY   84  52  32 S18G28    29.88F
KIRKSVILLE     PTSUNNY   80  60  50 S16       29.86F

$$

MOZ041-047>049-056>058-063>065-088>090-097-032200-
...EASTERN AND SOUTHERN MISSOURI...

CITY           SKY/WX    TMP DP  RH WIND       PRES   REMARKS
ST. LOUIS INTL PTSUNNY   85  48  27 S17G24    29.95F
SPIRIT OF STL  MOSUNNY   82  49  31 S13       29.92F
COLUMBIA       PTSUNNY   81  57  43 S12       29.91F
JEFFERSON CITY PTSUNNY   83  51  33 S17       29.90F
MEXICO         PTSUNNY   81  59  47 S15       29.92F
HANNIBAL       MOSUNNY   84  50  30 S16G23    29.90F
ROLLA          MOSUNNY   81  54  39 S17G24    29.94F
LEBANON        MOSUNNY   82  50  32 SW18      29.96F
OSAGE BEACH    MOSUNNY   82  52  34 S14G22    29.93S
SPRINGFIELD    MOSUNNY   80  54  40 S16       29.95F
BRANSON        PTSUNNY   81  54  39 SW13G22   30.00F
NEVADA         PTSUNNY   77  59  53 S18       29.92S
JOPLIN         PTSUNNY   80  57  45 SW17G24   29.93F
WEST PLAINS    MOSUNNY   79  52  38 S10G22    30.01F

$$

IAZ060-094-KSZ022-034>040-054-083-096-NEZ052-066-093-032200-
...KANSAS...SOUTHEAST NEBRASKA AND IOWA...

CITY           SKY/WX    TMP DP  RH WIND       PRES   REMARKS
TOPEKA         PTSUNNY   82  58  43 S17G24    29.80F
MANHATTAN      SUNNY     86  57  37 SW17      29.77F
EMPORIA        MOSUNNY   85  54  34 S23G33    29.82F
CHANUTE        PTSUNNY   81  57  43 S23G31    29.88F
WICHITA        PTSUNNY   84  55  36 S25G33    29.83S
OMAHA          PTSUNNY   80  60  50 SE8       29.74R
LINCOLN        MOSUNNY   83  63  50 SE10      29.74F
FALLS CITY     MOSUNNY   83  58  42 S13G21    29.77S
LAMONI         MOSUNNY   83  59  44 S16G25    29.80F
DES MOINES     MOSUNNY   84  58  40 S15G23    29.78F

$$




USA.gov is the U.S. government's official web portal to all federal, state and local government web resources and services.